RYR185 EDDF-EBCI

Flight info

Callsign RYR185
Flight time N/A
Altitude 20000
Route SOBRA2L/18 SOBRA DCT ROPUV DCT PESOV DCT LNO
Aircraft B738/M-SDE2E3FGHIRWXY/LB1

Departure

Time 2026-05-06 17:13
Airport Frankfurt Main Airport (EDDF)

Arrival

Time N/A
Airport Brussels South Charleroi Airport (EBCI)
Time Latitude Longitude Altitude Speed Heading
2026-05-06 16:39 50.04688 8.56701 359 ft 0 kts 115°
2026-05-06 16:58 50.04689 8.56697 359 ft 2 kts 115°
2026-05-06 16:59 50.04695 8.56675 359 ft 2 kts 115°
2026-05-06 16:59 50.04701 8.56654 359 ft 2 kts 115°
2026-05-06 16:59 50.04709 8.56633 359 ft 2 kts 141°
2026-05-06 16:59 50.04722 8.56623 359 ft 2 kts 172°
2026-05-06 17:00 50.04736 8.56625 359 ft 2 kts 205°
2026-05-06 17:00 50.04746 8.56637 359 ft 1 kts 232°
2026-05-06 17:00 50.04749 8.56641 359 ft 0 kts 238°
2026-05-06 17:02 50.04741 8.56624 359 ft 8 kts 238°
2026-05-06 17:03 50.04706 8.56547 358 ft 10 kts 228°
2026-05-06 17:03 50.04657 8.56390 358 ft 18 kts 250°
2026-05-06 17:03 50.04607 8.56180 357 ft 19 kts 250°
2026-05-06 17:03 50.04562 8.55986 355 ft 15 kts 242°
2026-05-06 17:04 50.04487 8.55943 355 ft 10 kts 194°
2026-05-06 17:04 50.04421 8.55913 355 ft 13 kts 198°
2026-05-06 17:04 50.04313 8.55942 354 ft 22 kts 153°
2026-05-06 17:04 50.04253 8.55936 354 ft 1 kts 202°
2026-05-06 17:05 50.04208 8.55803 353 ft 26 kts 250°
2026-05-06 17:05 50.04154 8.55548 351 ft 21 kts 252°
2026-05-06 17:05 50.04092 8.55326 351 ft 29 kts 250°
2026-05-06 17:05 50.04068 8.55218 350 ft 32 kts 253°
2026-05-06 17:06 50.03899 8.54515 346 ft 16 kts 249°
2026-05-06 17:06 50.03856 8.54363 345 ft 16 kts 238°
2026-05-06 17:06 50.03792 8.54186 344 ft 19 kts 251°
2026-05-06 17:07 50.03747 8.53999 343 ft 17 kts 250°
2026-05-06 17:07 50.03708 8.53827 342 ft 18 kts 252°
2026-05-06 17:07 50.03661 8.53644 341 ft 17 kts 248°
2026-05-06 17:07 50.03612 8.53451 340 ft 22 kts 250°
2026-05-06 17:08 50.03565 8.53245 339 ft 18 kts 250°
2026-05-06 17:08 50.03525 8.53080 339 ft 14 kts 249°
2026-05-06 17:08 50.03493 8.52952 338 ft 11 kts 249°
2026-05-06 17:08 50.03476 8.52888 338 ft 0 kts 246°
2026-05-06 17:09 50.03464 8.52849 338 ft 7 kts 246°
2026-05-06 17:09 50.03459 8.52828 337 ft 0 kts 247°
2026-05-06 17:09 50.03455 8.52813 337 ft 6 kts 248°
2026-05-06 17:09 50.03426 8.52700 337 ft 11 kts 250°
2026-05-06 17:10 50.03425 8.52694 337 ft 0 kts 250°
2026-05-06 17:10 50.03424 8.52693 337 ft 1 kts 250°
2026-05-06 17:11 50.03379 8.52601 337 ft 19 kts 200°
2026-05-06 17:11 50.03324 8.52594 336 ft 0 kts 179°
2026-05-06 17:11 50.03322 8.52594 336 ft 0 kts 179°
2026-05-06 17:11 50.03317 8.52594 336 ft 0 kts 179°
2026-05-06 17:12 50.03311 8.52594 336 ft 0 kts 179°
2026-05-06 17:12 50.03304 8.52594 336 ft 0 kts 179°
2026-05-06 17:12 50.03298 8.52594 336 ft 0 kts 180°
2026-05-06 17:12 50.03208 8.52596 336 ft 48 kts 180°
2026-05-06 17:13 50.02636 8.52596 334 ft 119 kts 179°
2026-05-06 17:13 50.01574 8.52624 383 ft 177 kts 181°
2026-05-06 17:13 50.00364 8.52676 1191 ft 173 kts 180°
2026-05-06 17:13 49.99134 8.52776 1847 ft 187 kts 181°
2026-05-06 17:14 49.97766 8.52847 2276 ft 208 kts 181°
2026-05-06 17:14 49.96286 8.52927 2814 ft 223 kts 180°
2026-05-06 17:14 49.94687 8.53020 3414 ft 235 kts 180°
2026-05-06 17:14 49.93008 8.53124 3838 ft 247 kts 180°
2026-05-06 17:15 49.91314 8.53237 3806 ft 239 kts 180°
2026-05-06 17:15 49.89668 8.53347 3808 ft 238 kts 180°
2026-05-06 17:15 49.87992 8.53442 3803 ft 238 kts 183°
2026-05-06 17:15 49.86403 8.52978 3921 ft 230 kts 202°
2026-05-06 17:16 49.84893 8.52102 4264 ft 235 kts 203°
2026-05-06 17:16 49.83366 8.51237 4588 ft 235 kts 203°
2026-05-06 17:16 49.81823 8.50371 4916 ft 235 kts 203°
2026-05-06 17:16 49.80302 8.49517 5258 ft 234 kts 203°
2026-05-06 17:17 49.78770 8.48602 5759 ft 235 kts 210°
2026-05-06 17:17 49.77458 8.47148 6251 ft 234 kts 229°
2026-05-06 17:17 49.76531 8.45131 6760 ft 232 kts 246°
2026-05-06 17:17 49.76076 8.42771 7258 ft 233 kts 264°
2026-05-06 17:18 49.76133 8.40299 7762 ft 235 kts 281°
2026-05-06 17:18 49.76532 8.37811 8264 ft 238 kts 284°
2026-05-06 17:18 49.76944 8.35304 8781 ft 251 kts 283°
2026-05-06 17:18 49.77381 8.32549 9297 ft 278 kts 283°
2026-05-06 17:19 49.77862 8.29541 9805 ft 302 kts 283°
2026-05-06 17:19 49.78386 8.26272 10298 ft 325 kts 283°
2026-05-06 17:19 49.78938 8.22820 10805 ft 338 kts 283°
2026-05-06 17:19 49.79506 8.19268 11301 ft 344 kts 283°
2026-05-06 17:20 49.80078 8.15685 11795 ft 346 kts 283°
2026-05-06 17:20 49.80658 8.12050 12306 ft 348 kts 283°
2026-05-06 17:20 49.81237 8.08409 12747 ft 353 kts 283°
2026-05-06 17:20 49.81824 8.04707 12804 ft 354 kts 283°
2026-05-06 17:21 49.82412 8.00994 12821 ft 350 kts 283°
2026-05-06 17:21 49.82983 7.97368 12816 ft 353 kts 283°
2026-05-06 17:21 49.83564 7.93674 12841 ft 352 kts 283°
2026-05-06 17:21 49.84134 7.90046 13278 ft 351 kts 283°
2026-05-06 17:22 49.84715 7.86328 13777 ft 360 kts 283°
2026-05-06 17:22 49.85325 7.82533 14293 ft 363 kts 285°
2026-05-06 17:22 49.86093 7.78816 14897 ft 363 kts 290°
2026-05-06 17:22 49.87120 7.75242 15519 ft 370 kts 298°
2026-05-06 17:23 49.88437 7.71772 16149 ft 374 kts 302°
2026-05-06 17:23 49.89920 7.68502 16763 ft 378 kts 306°
2026-05-06 17:23 49.91465 7.65191 17382 ft 381 kts 304°
2026-05-06 17:23 49.92957 7.61730 18011 ft 385 kts 302°
2026-05-06 17:24 49.94382 7.58198 18640 ft 390 kts 301°
2026-05-06 17:24 49.95790 7.54613 19275 ft 394 kts 300°
2026-05-06 17:24 49.97210 7.50953 19775 ft 401 kts 300°
2026-05-06 17:24 49.98657 7.47174 19823 ft 418 kts 299°
2026-05-06 17:25 50.00089 7.43174 19819 ft 426 kts 298°
2026-05-06 17:25 50.01520 7.39158 19817 ft 422 kts 298°
2026-05-06 17:25 50.02956 7.35240 19819 ft 420 kts 299°
2026-05-06 17:25 50.04414 7.31337 19827 ft 422 kts 298°
2026-05-06 17:26 50.05911 7.27381 19831 ft 422 kts 299°
2026-05-06 17:26 50.07408 7.23451 19831 ft 422 kts 299°
2026-05-06 17:26 50.08902 7.19541 19829 ft 421 kts 299°
2026-05-06 17:26 50.10392 7.15659 19834 ft 420 kts 299°
2026-05-06 17:27 50.11892 7.11751 19835 ft 421 kts 299°
2026-05-06 17:27 50.13377 7.07884 19835 ft 422 kts 299°
2026-05-06 17:27 50.14892 7.03941 19837 ft 422 kts 299°
2026-05-06 17:27 50.16378 7.00066 19838 ft 422 kts 300°
2026-05-06 17:28 50.17884 6.96136 19835 ft 422 kts 299°
2026-05-06 17:28 50.19395 6.92201 19835 ft 421 kts 299°
2026-05-06 17:28 50.20885 6.88314 19834 ft 421 kts 300°
2026-05-06 17:28 50.22382 6.84376 19863 ft 421 kts 298°
2026-05-06 17:29 50.23751 6.80351 19833 ft 420 kts 295°
2026-05-06 17:29 50.25066 6.76240 19829 ft 420 kts 295°
2026-05-06 17:29 50.26375 6.72165 19832 ft 419 kts 296°
2026-05-06 17:29 50.27675 6.68139 19827 ft 419 kts 296°
2026-05-06 17:30 50.28993 6.64058 19824 ft 419 kts 296°
2026-05-06 17:30 50.30298 6.60023 19824 ft 419 kts 296°
2026-05-06 17:30 50.31613 6.55949 19829 ft 418 kts 296°
2026-05-06 17:30 50.32912 6.51919 19814 ft 418 kts 296°
2026-05-06 17:31 50.34219 6.47860 19818 ft 418 kts 296°
2026-05-06 17:31 50.35513 6.43839 19816 ft 418 kts 296°
2026-05-06 17:31 50.36832 6.39736 19819 ft 418 kts 296°
2026-05-06 17:31 50.38119 6.35724 19820 ft 419 kts 296°
2026-05-06 17:32 50.39423 6.31654 19826 ft 419 kts 295°
2026-05-06 17:32 50.40719 6.27599 19832 ft 418 kts 295°
2026-05-06 17:32 50.42035 6.23471 19837 ft 432 kts 295°
2026-05-06 17:32 50.43404 6.19176 19833 ft 443 kts 295°
2026-05-06 17:33 50.44770 6.14888 19833 ft 440 kts 295°
2026-05-06 17:33 50.45833 6.11548 19831 ft 439 kts 295°
2026-05-06 17:33 50.46069 6.10804 19833 ft 439 kts 295°
2026-05-06 17:33 50.47271 6.07010 19844 ft 439 kts 295°
2026-05-06 17:34 50.48801 6.02164 19837 ft 439 kts 295°
2026-05-06 17:34 50.50161 5.97856 19840 ft 439 kts 295°
2026-05-06 17:34 50.51514 5.93568 19841 ft 438 kts 295°
2026-05-06 17:34 50.52868 5.89278 19849 ft 438 kts 295°
2026-05-06 17:35 50.54215 5.84996 19852 ft 438 kts 295°
2026-05-06 17:35 50.55548 5.80753 19842 ft 438 kts 295°
2026-05-06 17:35 50.56867 5.76503 19863 ft 428 kts 294°
2026-05-06 17:36 50.58778 5.68175 19854 ft 382 kts 284°
2026-05-06 17:36 50.59379 5.64245 19865 ft 362 kts 283°
2026-05-06 17:36 50.59947 5.60466 19617 ft 351 kts 283°
2026-05-06 17:36 50.60499 5.56771 19196 ft 346 kts 283°
2026-05-06 17:37 50.61031 5.53149 18326 ft 341 kts 283°
2026-05-06 17:37 50.61539 5.49617 17463 ft 329 kts 283°
2026-05-06 17:37 50.62032 5.46130 16577 ft 320 kts 283°
2026-05-06 17:37 50.62499 5.42791 15702 ft 313 kts 283°
2026-05-06 17:38 50.62957 5.39500 14821 ft 307 kts 284°
2026-05-06 17:38 50.63401 5.36287 13943 ft 301 kts 284°
2026-05-06 17:38 50.63840 5.33092 13061 ft 297 kts 283°
2026-05-06 17:38 50.64275 5.29960 12189 ft 296 kts 283°
2026-05-06 17:39 50.64710 5.26824 11312 ft 294 kts 283°
2026-05-06 17:39 50.65132 5.23742 10446 ft 291 kts 284°
2026-05-06 17:39 50.65552 5.20660 9573 ft 288 kts 284°
2026-05-06 17:40 50.66023 5.16450 8365 ft 286 kts 273°
2026-05-06 17:40 50.66007 5.15402 8110 ft 284 kts 265°